Home > Weather > Cocoa Beach > Past weeks

Flag for USA Weather for the Past 2 Weeks in Cocoa Beach, Florida, USA

Now
80 °F

Sunny.


Feels Like: 83 °F
Forecast: 73 / 83 °F
Wind: 10 mph from Southeast

Location: Cocoa / Patrick Air Force Base

Current Time: Apr 29, 2016 at 8:00:47 PM

Latest Report: Apr 29, 2016 at 6:58 PM


Visibility: 10 mi

Pressure: 29.94 "Hg

Humidity: 71%

Dew Point: 70 °F

Location of Cocoa BeachLocation

Historic Weather in Cocoa Beach — Graph

°F

Cocoa Beach Temperature Yesterday

Maximum temperature yesterday: 83 °F (at 2:58 PM)
Minimum temperature yesterday: 70 °F (at 5:55 AM)
Average temperature yesterday: 78 °F

High & Low Weather Summary for the Past Weeks

 TemperatureHumidityPressure
High84 °F (Apr 23, 3:58 PM)95% (Apr 23, 4:58 AM)30.23 "Hg (Apr 23, 4:58 AM)
Low66 °F (Apr 18, 4:58 AM)47% (Apr 20, 1:58 PM)29.88 "Hg (Apr 23, 3:58 PM)
Average75 °F70%30.05 "Hg
* Reported Apr 14 5:04 PM — Apr 29 5:58 PM, Cocoa Beach, Weather by CustomWeather, © 2016

Note: Actual official high and low records may vary slightly from our data, if they occured in-between our weather recording intervals... More about our weather records

Advertising

Cocoa Beach Weather History for the Previous 24 Hours

Scroll right to see more
 ConditionsComfort  
Time TempWeatherWind HumidityBarometerVisibility
5:58 PM
Fri, Apr 29
81 °FSunny.12 mph70%29.93 "Hg10 mi
4:58 PM82 °FSunny.12 mph68%29.94 "Hg10 mi
3:58 PM83 °FSunny.12 mph68%29.94 "Hg10 mi
2:58 PM83 °FSunny.13 mph68%29.95 "Hg10 mi
1:58 PM83 °FSunny.13 mph69%29.97 "Hg10 mi
12:58 PM82 °FSunny.10 mph70%29.99 "Hg10 mi
11:58 AM84 °FSunny.2 mph61%30.02 "Hg10 mi
10:58 AM82 °FSunny.3 mph68%30.02 "Hg10 mi
9:58 AM80 °FSunny.5 mph72%30.02 "Hg10 mi
8:58 AM78 °FSunny.8 mph79%30.03 "Hg10 mi
7:58 AM76 °FSunny.7 mph83%30.03 "Hg10 mi
6:58 AM74 °FClear.6 mph88%30.01 "Hg10 mi
5:58 AM73 °FClear.6 mph88%29.99 "Hg10 mi
4:58 AM73 °FClear.5 mph85%29.98 "Hg10 mi
3:58 AM74 °FClear.3 mph82%29.98 "Hg10 mi
2:58 AM75 °FClear.8 mph79%29.98 "Hg10 mi
1:58 AM75 °FPassing clouds.6 mph79%30.00 "Hg10 mi
11:58 PM
Thu, Apr 28
77 °FPassing clouds.6 mph79%30.02 "Hg10 mi
10:58 PM78 °FPassing clouds.7 mph72%30.02 "Hg10 mi
8:58 PM78 °FPassing clouds.13 mph78%30.00 "Hg10 mi
Weather by CustomWeather, © 2016

See weather overviewHow to use our weather pages